Regional Weather Roundup
Issued by NWS Jackson, KY

Home | Current Version | Previous Version | Text Only | Print | Product List | Glossary Off
Versions: 1 2 3 4 5 6 7 8 9 10 11 12 13 14 15 16 17 18 19 20 21 22 23 24 25 26 27 28 29 30 31 32 33 34 35 36 37 38 39 40 41 42 43 44 45 46 47 48 49 50

000
ASUS43 KJKL 230410
RWRJKL

EAST KENTUCKY HOURLY WEATHER ROUNDUP
NATIONAL WEATHER SERVICE JACKSON KY
1200 AM EDT WED JUL 23 2014

NOTE: "FAIR" INDICATES FEW OR NO CLOUDS BELOW 12,000 FEET WITH
NO SIGNIFICANT WEATHER AND/OR OBSTRUCTIONS TO VISIBILITY.

* THESE REPORTS ARE NOT UNDER NWS QUALITY CONTROL AND MAY NOT
  REPORT WEATHER SUCH AS PRECIPITATION AND FOG.

KYZ079-080-083-085-087-088-110-112-115-119-120-230500
...EASTERN KENTUCKY...

CITY           SKY/WX    TMP DP  RH WIND       PRES   REMARKS
JACKSON        PTCLDY    76  71  85 CALM      30.11S
LONDON         PTCLDY    75  71  87 CALM      30.12S
SOMERSET*      MOCLDY    72  72 100 CALM      30.11S FOG
MONTICELLO*    PTCLDY    74  73  96 CALM      30.11F FOG
WILLIAMSBURG*    N/A     72  72 100 CALM      30.12S
MIDDLESBORO*   PTCLDY    73  69  88 CALM      30.13F
HARLAN APT*    CLEAR     70  70 100 MISG      30.15S
HAZARD APT*    CLEAR     73  73 100 CALM      30.12R
BLACK MTN*       N/A     68  64  88 S3          N/A
PIKEVILLE APT* CLEAR     75  70  83 CALM      30.12S
BIG SANDY*     CLEAR     76  73  88 CALM      30.10S
MOREHEAD APT*    N/A     75  73  94 CALM      30.10S
$$

KYZ035-036-041-042-044-050-067-078-099-230500
...CENTRAL KENTUCKY...

CITY           SKY/WX    TMP DP  RH WIND       PRES   REMARKS
MT STERLING*   CLEAR     77  73  88 SW5       30.09S
FLEMING/MASON* CLEAR     77  72  83 S6        30.08S
DANVILLE*      CLEAR     73  72  94 CALM      30.10S
RICHMOND*      CLEAR     77  70  78 S3        30.09S
LEXINGTON      CLEAR     78  69  73 S5        30.08S
FRANKFORT      CLEAR     76  71  85 W3        30.06S
$$

KYZ091>093-OHZ055-061-077-WVZ005-015-034-035-042-230500
...SOUTHERN OHIO/WEST VIRGINIA...

CITY           SKY/WX    TMP DP  RH WIND       PRES   REMARKS
COVINGTON      CLEAR     73  68  84 S3        30.05F
COLUMBUS       CLEAR     81  70  69 S3        30.02S
DAYTON         CLEAR     77  67  71 SW7       30.04F
WILMINGTON     CLEAR     72  69  90 CALM      30.05F
HUNTINGTON     CLEAR     73  72  96 E5        30.05F
CHARLESTON     CLEAR     73  73 100 CALM      30.07S
PINEVILLE*     CLEAR     71  71 100 MISG      30.19S
BECKLEY        PTCLDY    73  65  75 S5        30.18S
BLUEFIELD      CLEAR     74  64  71 S6        30.22S
$$

VAZ002-007-008-TNZ017-027-036-066-071-230500
...SOUTHWEST VIRGINIA/EAST TENNESSEE...

CITY           SKY/WX    TMP DP  RH WIND       PRES   REMARKS
WISE*          CLEAR     70  66  88 S3        30.22S
JONESVILLE*      N/A     70  70 100 CALM      30.16S
ABINGDON*      CLEAR     72  69  89 CALM      30.18S
BRISTOL        PTCLDY    74  67  78 SW3       30.15S
KNOXVILLE      MOCLDY    77  72  84 SW5       30.11S
OAK RIDGE      PTCLDY    78  73  84 S3        30.13S
CROSSVILLE     MOCLDY    72  69  90 CALM      30.17F
NASHVILLE      MOCLDY    79  72  79 CALM      30.08F
$$

...KEY TO REMARKS...
VSB - VISIBILITY IN MILES
WCI - WIND CHILL INDEX
HX  - HEAT INDEX

$$



USA.gov is the U.S. government's official web portal to all federal, state and local government web resources and services.